Location: Oberwangen
(47.4286°N, 8.9679°E)
Time: 23:45:25
(UTC+00:00)

Cosmos 2237 Rocket - Pass Details

Date: 20 June 2021
Orbit: 835 x 849 km, 71.0° (Epoch: 23 July)

Event Time Altitude Azimuth Distance (km) Brightness Sun altitude
Exits shadow 22:23:44 19° 209° (SSW) 1,877 3.6 -17.8°
Maximum altitude 22:27:50 84° 297° (WNW) 846 2.2 -17.9°
Drops below altitude 10° 22:33:29 10° 26° (NNE) 2,457 5.3 -18.2°
Sets 22:35:56 0° 27° (NNE) 3,396 6.2 -18.2°
